This demonstration page uses our WeatherBlox Daily Observations layout. Learn more.

Left ArrowRight Arrow

Hourly Observations for May 19, 2015

Temp ( °F °C ) Dew Point ( °F °C ) Humidity (%) Winds ( mph kmh ) Pressure ( in mb ) Visibility ( mi km ) Precip ( " mm )
12:53 am 00:53 Clear 48 8.9 39 3.9 71 71 ENE 7 11 30.36 1028 10 16 0.00 0.00
1:53 am 01:53 Clear 45 7.2 39 3.9 80 80 NE 9 15 30.35 1028 10 16 0.00 0.00
2:53 am 02:53 Clear 45 7.2 38 3.3 77 77 ENE 10 17 30.34 1027 10 16 0.00 0.00
3:53 am 03:53 Partly Cloudy 43 6.1 37 2.8 80 80 ENE 9 15 30.35 1028 10 16 0.00 0.00
4:53 am 04:53 Cloudy 43 6.1 37 2.8 80 80 ENE 12 19 30.36 1028 10 16 0.00 0.00
5:53 am 05:53 Cloudy 42 5.6 36 2.2 79 79 ENE 13 20 30.35 1028 10 16 0.00 0.00
6:53 am 06:53 Sunny 41 5 35 1.7 79 79 ENE 8 13 30.34 1027 10 16 0.00 0.00
7:53 am 07:53 Sunny 41 5 35 1.7 79 79 ENE 12 19 30.36 1028 10 16 0.00 0.00
8:53 am 08:53 Partly Cloudy 42 5.6 36 2.2 79 79 NE 12 19 30.35 1028 10 16 0.00 0.00
9:53 am 09:53 Mostly Cloudy 42 5.6 35 1.7 76 76 ENE 12 19 30.38 1029 10 16 0.00 0.00
10:53 am 10:53 Cloudy 42 5.6 35 1.7 76 76 ENE 15 24 30.37 1028 10 16 0.00 0.00
11:53 am 11:53 Mostly Cloudy 43 6.1 35 1.7 74 74 NE 15 24 30.34 1028 10 16 0.00 0.00
12:53 pm 12:53 Cloudy 44 6.7 35 1.7 71 71 NE 14 22 30.32 1027 10 16 0.00 0.00
1:53 pm 13:53 Cloudy 44 6.7 36 2.2 73 73 ENE 12 19 30.32 1027 10 16 0.00 0.00
2:53 pm 14:53 Cloudy with Light Rain 44 6.7 37 2.8 76 76 ENE 5 7 30.36 1028 8 13 0.02 0.51
3:53 pm 15:53 Cloudy with Light Rain 44 6.7 39 3.9 83 83 NE 10 17 30.31 1026 8 13 0.04 1.02
4:53 pm 16:53 Cloudy with Light Rain 44 6.7 38 3.3 79 79 NE 20 31 30.22 1024 10 16 0.02 0.51
5:53 pm 17:53 Mostly Cloudy 45 7.2 39 3.9 80 80 ENE 21 33 30.20 1023 10 16 0.00 0.03
6:53 pm 18:53 Cloudy 44 6.7 39 3.9 83 83 ENE 20 31 30.17 1022 10 16 0.00 0.00
7:53 pm 19:53 Cloudy with Light Rain 44 6.7 39 3.9 83 83 NE 17 28 30.17 1022 9 14 0.00 0.03
8:53 pm 20:53 Cloudy with Light Rain 43 6.1 39 3.9 86 86 NNE 14 22 30.20 1023 4 6 0.03 0.76
9:53 pm 21:53 Cloudy with Light Rain 43 6.1 39 3.9 86 86 NNE 8 13 30.21 1023 9 14 0.02 0.51
10:53 pm 22:53 Cloudy with Light Rain 43 6.1 40 4.4 89 89 NNW 8 13 30.25 1024 5 8 0.04 1.02
11:48 pm 23:48 Cloudy with Light Rain 43 6 43 6 100 100 NNW 6 9 30.27 1025 4 6 0.00 0.00
11:53 pm 23:53 Cloudy with Rain 43 6.1 42 5.6 97 97 NNW 6 9 30.26 1025 4 6 0.10 2.54
11:59 pm 23:59 Cloudy with Rain 43 6.1 42 5.6 97 97 NNW 7 11 30.27 1025 4 6 0.01 0.25

Powered by AerisWeather